Find Starlink 33678

NORAD ID: 63509 Int'l Des: 2025-071 Owner: SPXS Country: US Constellation: starlink operational
LEOCIRCULAR

現在のビュー

3D地球を読み込み中...

About Starlink 33678

Starlink 33678 (NORAD 63509) is a starlink constellation satellite (v2 mini) launched Apr 7, 2025 by SPXS of US. It operates in LEO, CIRCULAR orbit with a mass of 575.00 kg.

Starlink 33678について

説明を読み込み中...

次回通過

Passes for default location (London). Set your location on the main map for personalized predictions.

高度履歴

Loading altitude history...

軌道要素

1 63509U 25071S 26168.98980369 .00009389 00000-0 31370-3 0 9999
2 63509 53.1588 33.4819 0001408 84.3959 275.7203 15.31724651 67862
Epoch: Jun 17, 2026 • Age: 23 hours

現在のステータス

高度 485.7 km
速度 7.62 km/s
衛星直下点 -42.70°S, 4.6°E
打ち上げ日 Apr 7, 2025
運用期間 1.1 years
タイプ internet

技術仕様

分類 Payload
質量 575.00 kg
乾燥質量 530.00 kg
総質量 575.00 kg
長さ 0.30 m
直径 4.10 m
スパン 29.00 m
形状 Box + pan
製造者 SPXS
バスタイプ Starlink V2MO
フェーズステータス In Orbit
所有者/国 SPXS/US

Most Searched